Location: ????
(30.2663°N, 31.2484°E)
Time: 11:53:37
(UTC+00:00)

SWIFT - Pass Details

Date: 27 September 2022
Orbit: 536 x 550 km, 20.6° (Epoch: 26 November)

Event Time Altitude Azimuth Distance (km) Brightness Sun altitude
Exits shadow 00:44:31 - 114° (ESE) 2,685 6.3 -38.9°
Enters shadow 01:44:42 -61° 283° (WNW) 11,784 9.1 -26.8°
Sets 02:25:28 0° 129° (SE) 2,660 6.5 -18.2°
